When you browse on this site, cookies collect data to enhance your experience and personalize the content and advertising you see.
Visit our Privacy Policy to learn more. By continuing to use the site, you agree to this use of cookies and data.

Previsão horária em Vanadzor

Hoje, 15 Agosto, Sábado

Tempo Temperatura Precipitação Vento Pressão Humidade
00:00 +13°C° 0 mm 1 m/s 633 mmHg 89%
01:00 +13°C° 0 mm 1 m/s 633 mmHg 89%
02:00 +13°C° 0 mm 1 m/s 633 mmHg 89%
03:00 +13°C° 0 mm 1 m/s 632 mmHg 89%
04:00 +14°C° 0 mm 1 m/s 633 mmHg 90%
05:00 +14°C° 0 mm 1 m/s 633 mmHg 91%
06:00 +14°C° 0 mm 1 m/s 633 mmHg 91%
07:00 +15°C° 0 mm 1 m/s 633 mmHg 87%
08:00 +16°C° 0 mm 1 m/s 634 mmHg 84%
09:00 +16°C° 0 mm 1 m/s 634 mmHg 80%
10:00 +17°C° 0 mm 2 m/s 634 mmHg 76%
11:00 +18°C° 0 mm 2 m/s 634 mmHg 73%
12:00 +19°C° 0 mm 2 m/s 634 mmHg 70%
13:00 +19°C° 0.1 mm 2 m/s 634 mmHg 69%
14:00 +20°C° 0.1 mm 2 m/s 634 mmHg 68%
15:00 +20°C° 0.1 mm 2 m/s 634 mmHg 67%
16:00 +19°C° 0 mm 2 m/s 634 mmHg 69%
17:00 +18°C° 0 mm 2 m/s 633 mmHg 72%
18:00 +18°C° 0 mm 2 m/s 633 mmHg 75%
19:00 +16°C° 0 mm 2 m/s 633 mmHg 77%
20:00 +15°C° 0 mm 2 m/s 633 mmHg 79%
21:00 +13°C° 0 mm 1 m/s 633 mmHg 81%
22:00 +13°C° 0 mm 1 m/s 633 mmHg 84%
23:00 +12°C° 0 mm 1 m/s 633 mmHg 86%

Amanhã, 16 Agosto, Domingo

Tempo Temperatura Precipitação Vento Pressão Humidade
00:00 +11°C° 0 mm 1 m/s 633 mmHg 88%
01:00 +12°C° 0 mm 1 m/s 633 mmHg 90%
02:00 +12°C° 0 mm 1 m/s 633 mmHg 92%
03:00 +12°C° 0 mm 1 m/s 633 mmHg 93%
04:00 +12°C° 0 mm 1 m/s 633 mmHg 94%
05:00 +12°C° 0 mm 1 m/s 633 mmHg 94%
06:00 +13°C° 0 mm 1 m/s 633 mmHg 94%
07:00 +13°C° 0 mm 2 m/s 633 mmHg 91%
08:00 +14°C° 0 mm 2 m/s 634 mmHg 89%
09:00 +15°C° 0 mm 2 m/s 634 mmHg 86%
10:00 +16°C° 0 mm 2 m/s 634 mmHg 84%
11:00 +16°C° 0 mm 2 m/s 634 mmHg 83%
12:00 +17°C° 0 mm 2 m/s 634 mmHg 81%
13:00 +17°C° 0.1 mm 2 m/s 633 mmHg 82%
14:00 +17°C° 0.1 mm 2 m/s 633 mmHg 83%
15:00 +17°C° 0.1 mm 2 m/s 633 mmHg 84%
16:00 +16°C° 0.1 mm 2 m/s 633 mmHg 87%
17:00 +16°C° 0.1 mm 2 m/s 632 mmHg 90%
18:00 +15°C° 0.1 mm 2 m/s 632 mmHg 92%
19:00 +15°C° 0.4 mm 2 m/s 632 mmHg 94%
20:00 +15°C° 0.4 mm 2 m/s 633 mmHg 95%
21:00 +14°C° 0.4 mm 1 m/s 633 mmHg 97%
22:00 +14°C° 0.3 mm 2 m/s 633 mmHg 97%
23:00 +14°C° 0.3 mm 2 m/s 633 mmHg 97%

Depois de amanhã, 17 Agosto, Segunda-feira

Tempo Temperatura Precipitação Vento Pressão Humidade
00:00 +14°C° 0.3 mm 2 m/s 633 mmHg 97%
01:00 +14°C° 0.4 mm 1 m/s 633 mmHg 97%
02:00 +14°C° 0.4 mm 1 m/s 633 mmHg 98%
03:00 +14°C° 0.4 mm 1 m/s 633 mmHg 98%
04:00 +14°C° 0.1 mm 1 m/s 633 mmHg 97%
05:00 +14°C° 0.1 mm 1 m/s 633 mmHg 97%
06:00 +13°C° 0.1 mm 1 m/s 633 mmHg 97%
07:00 +14°C° 0 mm 1 m/s 633 mmHg 95%
08:00 +14°C° 0 mm 1 m/s 634 mmHg 94%
09:00 +15°C° 0 mm 1 m/s 634 mmHg 92%
10:00 +15°C° 0.1 mm 2 m/s 634 mmHg 90%
11:00 +16°C° 0.1 mm 2 m/s 634 mmHg 89%
12:00 +16°C° 0.1 mm 2 m/s 634 mmHg 87%
13:00 +17°C° 0.1 mm 2 m/s 634 mmHg 86%
14:00 +17°C° 0.1 mm 2 m/s 634 mmHg 85%
15:00 +17°C° 0.1 mm 2 m/s 634 mmHg 84%
16:00 +17°C° 0 mm 2 m/s 634 mmHg 85%
17:00 +16°C° 0 mm 2 m/s 634 mmHg 87%
18:00 +16°C° 0 mm 2 m/s 634 mmHg 88%
19:00 +15°C° 0 mm 2 m/s 634 mmHg 91%
20:00 +14°C° 0 mm 2 m/s 635 mmHg 93%
21:00 +14°C° 0 mm 2 m/s 635 mmHg 96%
22:00 +13°C° 0 mm 2 m/s 635 mmHg 96%
23:00 +13°C° 0 mm 2 m/s 635 mmHg 96%

18 Agosto, Terça-feira

Tempo Temperatura Precipitação Vento Pressão Humidade
00:00 +13°C° 0 mm 2 m/s 635 mmHg 96%
01:00 +13°C° 0 mm 2 m/s 635 mmHg 96%
02:00 +13°C° 0 mm 2 m/s 635 mmHg 96%
03:00 +13°C° 0 mm 2 m/s 635 mmHg 96%
04:00 +13°C° 0 mm 1 m/s 635 mmHg 96%
05:00 +13°C° 0 mm 1 m/s 635 mmHg 96%
06:00 +13°C° 0 mm 1 m/s 635 mmHg 96%
07:00 +14°C° 0 mm 1 m/s 635 mmHg 94%
08:00 +14°C° 0 mm 2 m/s 635 mmHg 91%
09:00 +15°C° 0 mm 2 m/s 635 mmHg 89%
10:00 +15°C° 0 mm 2 m/s 635 mmHg 87%
11:00 +16°C° 0 mm 2 m/s 635 mmHg 85%
12:00 +17°C° 0 mm 2 m/s 635 mmHg 84%
13:00 +17°C° 0.1 mm 2 m/s 634 mmHg 83%
14:00 +17°C° 0.1 mm 2 m/s 634 mmHg 83%
15:00 +17°C° 0.1 mm 2 m/s 634 mmHg 83%
16:00 +17°C° 0.1 mm 2 m/s 634 mmHg 85%
17:00 +16°C° 0.1 mm 2 m/s 633 mmHg 87%
18:00 +16°C° 0.1 mm 2 m/s 633 mmHg 89%
19:00 +15°C° 0 mm 2 m/s 633 mmHg 91%
20:00 +15°C° 0 mm 2 m/s 634 mmHg 93%
21:00 +14°C° 0 mm 1 m/s 634 mmHg 95%
22:00 +14°C° 0 mm 1 m/s 634 mmHg 95%
23:00 +14°C° 0 mm 1 m/s 634 mmHg 95%

19 Agosto, Quarta-feira

Tempo Temperatura Precipitação Vento Pressão Humidade
00:00 +14°C° 0 mm 1 m/s 634 mmHg 95%
01:00 +14°C° 0 mm 1 m/s 634 mmHg 95%
02:00 +14°C° 0 mm 1 m/s 633 mmHg 95%
03:00 +14°C° 0 mm 1 m/s 633 mmHg 95%
04:00 +14°C° 0 mm 1 m/s 633 mmHg 95%
05:00 +14°C° 0 mm 1 m/s 633 mmHg 95%
06:00 +14°C° 0 mm 1 m/s 633 mmHg 96%
07:00 +15°C° 0 mm 1 m/s 633 mmHg 91%
08:00 +16°C° 0 mm 2 m/s 634 mmHg 87%
09:00 +17°C° 0 mm 2 m/s 634 mmHg 82%
10:00 +17°C° 0.1 mm 2 m/s 634 mmHg 80%
11:00 +18°C° 0.1 mm 2 m/s 633 mmHg 77%
12:00 +19°C° 0.1 mm 2 m/s 633 mmHg 75%
13:00 +19°C° 0.1 mm 2 m/s 633 mmHg 75%
14:00 +19°C° 0.1 mm 2 m/s 633 mmHg 74%
15:00 +20°C° 0.1 mm 2 m/s 633 mmHg 74%
16:00 +19°C° 0.1 mm 2 m/s 633 mmHg 77%
17:00 +18°C° 0.1 mm 2 m/s 633 mmHg 80%
18:00 +18°C° 0.1 mm 2 m/s 633 mmHg 82%
19:00 +17°C° 0 mm 2 m/s 633 mmHg 85%
20:00 +16°C° 0 mm 2 m/s 633 mmHg 87%
21:00 +15°C° 0 mm 2 m/s 633 mmHg 90%
22:00 +15°C° 0 mm 1 m/s 633 mmHg 90%
23:00 +15°C° 0 mm 1 m/s 633 mmHg 90%

20 Agosto, Quinta-feira

Tempo Temperatura Precipitação Vento Pressão Humidade
00:00 +15°C° 0 mm 1 m/s 633 mmHg 90%
01:00 +15°C° 0 mm 1 m/s 633 mmHg 90%
02:00 +15°C° 0 mm 1 m/s 633 mmHg 90%
03:00 +15°C° 0 mm 1 m/s 633 mmHg 90%
04:00 +15°C° 0 mm 1 m/s 633 mmHg 90%
05:00 +15°C° 0 mm 1 m/s 633 mmHg 91%
06:00 +15°C° 0 mm 1 m/s 634 mmHg 91%
07:00 +16°C° 0 mm 1 m/s 634 mmHg 86%
08:00 +17°C° 0 mm 2 m/s 634 mmHg 80%
09:00 +18°C° 0 mm 2 m/s 634 mmHg 75%
10:00 +19°C° 0 mm 2 m/s 634 mmHg 72%
11:00 +20°C° 0 mm 2 m/s 635 mmHg 69%
12:00 +21°C° 0 mm 2 m/s 635 mmHg 66%
13:00 +21°C° 0 mm 2 m/s 634 mmHg 67%
14:00 +21°C° 0 mm 2 m/s 634 mmHg 67%
15:00 +23°C° 0 mm 2 m/s 634 mmHg 67%
16:00 +21°C° 0 mm 2 m/s 634 mmHg 71%
17:00 +20°C° 0 mm 2 m/s 633 mmHg 74%
18:00 +19°C° 0 mm 2 m/s 633 mmHg 77%
19:00 +19°C° 0 mm 1 m/s 633 mmHg 81%
20:00 +16°C° 0 mm 1 m/s 633 mmHg 85%
21:00 +15°C° 0 mm 1 m/s 633 mmHg 88%
22:00 +15°C° 0 mm 1 m/s 633 mmHg 89%
23:00 +14°C° 0 mm 1 m/s 633 mmHg 89%
Mostrar mais